Details From EGXW - Waddington
To LSZC - Buochs
Flight Number -
Tags Real Generated
Created
Modified
Stats Distance 505 nm / 936 km
Max Altitude 0 ft / 0 m
Waypoints 4
Social Downloads 4
Likes 0
Share VATSIM

Download

Looking for another format? Having issues loading an existing format? Contact us
Advertisement - Login to hide

Notes

Generated

Route

EGXW BFS25 VEBIT LSZC

ID Type Via Altitude Latitude Longitude Leg Dist Tot Dist Heading (true) Name
O EGXW APT - 0 ft / 0 m 53.15466˚ -0.53148˚ - 0 nm - -
BFS25 FIX - 0 ft / 0 m 50.13799˚ 4.21458˚ 253 nm 253 nm 134° / 138° -
VEBIT FIX - 0 ft / 0 m 47.26861˚ 8.00583˚ 228 nm 481 nm 137° / 140° -
O LSZC APT - 0 ft / 0 m 46.97088˚ 8.39004˚ 23 nm 505 nm 139° / 139° -

Altitude Profile

Advertisement - Login to hide

Weather


0- 5 10 15 20 25 30 35+ Temperature / ° C

Clouds and Precipitation
Forecast for 2018-05-24 18:00 UTC. Updated 4 hours ago

Ground ~20,000 ft ~40,000 ft Winds

EGXW

Details ICAO EGXW (WTN)
Name RAF Waddington
Region United Kingdom
Timezone Europe/London (UTC+1.0)
Stats Elevation 231 ft / 70 m (AMSL)
Location 53.166112° -0.523906°
Runways 1
Magnetic Variation 0.713° W

METAR

EGXW 242050Z 03011KT CAVOK 13/10 Q1020 BLU

Decode

TAF

TAF AMD EGXW 242013Z 2421/2515 04012KT 9999 FEW040 PROB30 TEMPO 2422/2512 4000 SHRA BECMG 2500/2502 7000 BR BKN007 PROB40 2502/2515 BKN004 PROB30 TEMPO 2512/2515 4000 RADZ

Decode

Departure Runways

ID Width Length Bearing (true) Bearing (mag) Surface Threshold Offset Overrun Length
02 200 ft / 61 m 8,988 ft / 2,740 m 21.63° 22.34° Asphalt 0 ft / 0 m 600 ft / 183 m
20 200 ft / 61 m 8,988 ft / 2,740 m 201.64° 202.35° Asphalt 0 ft / 0 m 0 ft / 0 m

LSZC

Details ICAO LSZC (BXO)
Name Buochs
Region Switzerland
Timezone Europe/Zurich (UTC+2.0)
Stats Elevation 1,475 ft / 450 m (AMSL)
Location 46.973188° 8.397360°
Runways 2
Magnetic Variation 2.360° E

METAR

LSZC 242120Z AUTO 19011KT 160V250 9999 SCT050 OVC070 BKN090 17/12 Q1019

Decode

TAF

Not found

Destination Runways

ID Width Length Bearing (true) Bearing (mag) Surface Threshold Offset Overrun Length
07L 131 ft / 40 m 6,570 ft / 2,002 m 64.09° 61.73° Asphalt 0 ft / 0 m 650 ft / 198 m
07R 131 ft / 40 m 4,827 ft / 1,471 m 64.00° 61.64° Asphalt 0 ft / 0 m 1,161 ft / 354 m
25L 131 ft / 40 m 4,827 ft / 1,471 m 244.02° 241.66° Asphalt 0 ft / 0 m 1,161 ft / 354 m
25R 131 ft / 40 m 6,570 ft / 2,002 m 244.11° 241.75° Asphalt 0 ft / 0 m 650 ft / 198 m

Popular Alternatives